Home > Weather > São Tomé > Past weeks

Flag for Sao Tome and Principe Weather for the Past 2 Weeks in São Tomé, Sao Tome and Principe

Now
84 °F

Passing clouds.


Feels Like: 98 °F
Forecast: N/A
Wind: 3 mph from West

Location: S. Tome

Current Time: Feb 11, 2016 at 11:53:46 PM

Latest Report: Feb 11, 2016 at 10:00 PM


Visibility: N/A

Pressure: 29.89 "Hg

Humidity: 89%

Dew point: 81 °F

Location of São ToméLocation

Historic Weather in São Tomé — Graph

°F

São Tomé Temperature Yesterday

Maximum temperature yesterday: 91 °F (at 11:00 AM)
Minimum temperature yesterday: 81 °F (at 7:00 AM)
Average temperature yesterday: 86 °F

High & Low Weather Summary for the Past Weeks

 TemperatureHumidityPressure
High91 °F (Feb 10, 11:00 AM)94% (Jan 28, 3:00 AM)29.98 "Hg (Jan 28, 3:00 AM)
Low73 °F (Jan 28, 5:00 AM)63% (Jan 29, 4:00 PM)29.77 "Hg (Feb 2, 4:00 PM)
Average84 °F81%29.88 "Hg
* Reported Jan 28 3:00 AM — Feb 11 10:00 PM, São Tomé, Weather by CustomWeather, © 2016

Note: Actual official high and low records may vary slightly from our data, if they occured in-between our weather recording intervals... More about our weather records

Advertising

São Tomé Weather History for the Previous 24 Hours

 ConditionsComfort  
Time TempWeatherWind HumidityBarometerVisibility
10:00 PM
Thu, Feb 11
84 °FPassing clouds.3 mph89%29.89 "HgN/A
9:00 PM84 °FPassing clouds.3 mph89%29.86 "HgN/A
8:00 PM88 °FPassing clouds.3 mph79%29.80 "HgN/A
7:00 PM88 °FPassing clouds.5 mph79%29.80 "HgN/A
6:00 PM88 °FPassing clouds.5 mph79%29.80 "HgN/A
5:00 PM88 °FPartly sunny.5 mph79%29.80 "HgN/A
4:00 PM90 °FScattered clouds.2 mph71%29.80 "HgN/A
3:00 PM90 °FPartly sunny.9 mph75%29.80 "HgN/A
2:00 PM90 °FPartly sunny.12 mph75%29.80 "HgN/A
12:00 PM90 °FPartly sunny.9 mph79%29.86 "HgN/A
11:00 AM88 °FPartly sunny.5 mph79%29.89 "HgN/A
10:00 AM90 °FPartly sunny.3 mph71%29.89 "Hg4 mi
9:00 AM90 °FPartly sunny.2 mph75%29.92 "Hg4 mi
8:00 AM86 °FPartly sunny.2 mph75%29.92 "Hg5 mi
7:00 AM79 °FFog.3 mph84%29.89 "Hg4 mi
6:00 AM79 °FFog.3 mph84%29.86 "Hg4 mi
5:00 AM81 °FFog.3 mph84%29.86 "Hg4 mi
Weather by CustomWeather, © 2016

See weather overviewHow to use our weather pages